Theta_e
319 318 317 317 318 319 322 323 329 332 326 323 323 326 324 322 325 323 324 324 325 325 324 326 326 326 328 333 335 335 335 337 338 340 343 337 335 336 334 335 332 331 332 332 331 324 318 314 309 309 309 308 309 314 322 329 332 333 335 335 335 335 335 335 335 334 333 331 328 327 326 322 315 312 314 314 312 314 313 311 311 312 312 311 311 312 311 311 311 311 312 314 313 310 310 310 310
318 317 317 317 319 321 325 323 328 332 325 322 322 323 323 323 324 322 325 324 325 326 324 325 326 327 330 333 332 335 337 337 337 337 337 335 336 336 335 336 332 331 331 331 329 321 318 313 309 309 309 308 310 315 321 327 331 333 335 335 335 335 335 334 333 331 329 326 321 320 319 315 312 315 319 315 312 313 311 311 313 313 311 311 312 312 311 311 311 311 311 310 310 310 311 310 311
317 317 317 318 321 322 325 324 325 326 323 322 321 321 325 327 325 323 324 325 326 326 324 325 325 328 332 334 333 336 338 337 337 337 337 337 337 336 336 335 332 332 331 330 326 320 317 312 309 309 309 308 311 316 319 325 329 332 334 335 335 334 334 333 330 327 324 321 317 316 314 313 315 319 319 316 315 314 310 311 313 314 311 311 314 314 313 312 311 310 310 310 310 310 311 310 312
316 317 319 321 323 324 325 325 329 326 321 323 320 319 325 328 327 324 324 325 325 324 325 325 323 328 334 335 334 336 337 337 338 337 338 337 336 336 336 334 332 332 331 330 325 320 317 312 310 309 309 308 310 315 319 322 324 330 333 333 334 333 332 329 325 321 317 314 313 312 314 317 317 317 315 317 320 316 312 310 310 314 315 313 315 317 316 314 311 310 310 310 310 310 311 311 313
316 317 318 321 325 326 325 326 333 327 320 325 321 320 325 326 327 324 324 324 324 324 325 325 323 326 332 334 334 335 336 337 337 337 338 337 336 335 334 333 332 332 332 331 324 319 316 312 310 310 309 308 309 312 316 318 319 326 331 331 331 331 329 326 322 319 314 312 311 310 316 319 315 314 316 320 320 316 313 311 313 316 318 316 315 316 315 313 311 310 310 310 311 311 311 312 314
317 317 317 319 322 323 324 324 330 326 320 327 322 321 325 322 324 322 323 324 324 325 325 325 323 325 333 335 335 335 336 336 337 337 337 337 335 333 334 333 332 333 333 331 323 319 316 313 311 310 310 309 309 309 311 312 314 322 328 327 328 328 326 325 322 317 313 311 310 310 317 319 317 318 319 320 318 319 316 310 313 314 316 317 317 317 315 314 312 310 310 310 311 311 312 313 315
317 319 319 320 323 322 326 324 327 328 319 322 322 322 323 320 322 321 322 323 323 325 324 325 323 325 332 335 336 337 336 336 337 337 336 336 334 334 335 333 333 333 333 330 323 319 317 315 312 311 310 310 310 309 309 309 310 318 325 325 326 326 323 322 319 314 311 310 310 310 313 316 319 319 317 318 318 320 316 309 309 309 312 315 317 319 318 314 311 310 310 310 311 311 313 314 316
319 321 320 323 328 324 325 326 329 329 319 319 321 322 322 320 321 320 321 322 322 323 324 324 323 325 330 333 336 337 337 337 337 335 335 336 334 334 335 334 333 334 333 329 322 319 319 317 316 313 311 310 311 310 310 311 310 314 323 324 325 326 320 317 315 311 309 310 310 310 312 314 317 319 320 320 317 318 314 309 308 308 311 313 314 315 314 312 310 310 310 311 311 312 314 315 317
319 322 321 323 331 326 325 328 326 324 320 321 321 321 321 320 320 319 320 320 320 322 324 323 321 327 331 333 336 338 338 338 337 335 335 335 334 334 335 334 334 334 333 329 322 320 320 320 319 316 314 311 310 311 311 313 312 311 318 321 323 323 317 314 312 310 310 310 310 314 316 314 315 320 322 320 316 315 311 308 308 309 311 313 314 313 312 311 311 311 310 311 311 312 314 315 317
319 321 321 324 327 325 325 328 324 321 320 320 321 321 321 320 319 319 319 320 321 321 323 321 323 330 332 333 336 338 338 338 337 335 334 335 335 335 334 334 334 334 332 329 322 320 321 321 320 319 317 313 311 311 310 312 313 310 312 316 317 316 313 312 311 310 310 309 310 315 316 311 314 320 319 317 315 313 309 308 308 310 311 312 314 314 314 313 312 312 312 312 312 313 314 315 317
321 320 319 323 324 324 327 326 322 321 320 320 320 320 321 320 319 319 319 321 321 321 322 320 326 332 334 334 335 337 337 337 336 334 334 336 336 336 334 334 336 335 332 329 322 319 321 322 322 321 319 315 311 311 310 311 311 311 311 311 311 311 311 311 310 310 310 309 309 311 311 310 313 315 314 313 312 311 308 308 309 311 313 313 314 314 314 314 314 313 313 313 313 313 314 315 316
324 323 321 325 327 328 328 323 321 320 320 321 320 320 321 320 319 318 319 322 321 322 321 319 324 331 335 335 335 336 337 336 335 333 334 336 336 336 335 336 337 336 333 330 323 319 321 322 323 322 321 318 313 311 311 311 311 311 311 311 312 312 311 311 310 310 309 309 309 308 309 309 310 311 310 310 310 309 308 309 311 313 314 315 315 315 315 315 314 314 313 313 313 313 313 314 315
323 324 323 326 331 330 325 322 321 322 319 321 320 320 321 320 320 318 320 321 320 321 320 319 321 328 335 335 335 336 336 335 335 332 333 336 336 336 336 336 337 337 335 331 326 320 320 321 322 323 323 321 317 313 314 314 314 314 314 314 314 314 313 311 310 309 309 309 309 308 308 308 308 308 309 308 308 309 310 311 313 315 316 316 316 316 316 316 315 315 314 314 313 313 313 313 314
321 323 324 327 333 328 325 322 320 321 318 319 320 319 321 319 319 318 320 320 319 320 319 320 319 327 336 335 335 335 336 335 334 331 333 336 336 336 336 336 336 337 336 332 329 323 320 320 321 323 323 323 320 316 316 317 318 318 318 318 318 316 315 313 311 310 309 309 308 308 308 308 308 308 308 308 308 310 313 314 316 316 316 317 317 318 318 317 316 316 315 314 314 314 313 313 313
320 322 323 326 330 325 326 324 322 324 319 319 320 319 320 318 318 318 318 320 320 319 318 320 320 326 335 334 334 334 336 335 333 331 332 336 336 336 336 335 334 336 337 334 332 327 321 320 320 321 322 324 323 321 319 319 320 321 322 322 322 321 318 315 313 312 311 309 308 308 308 308 308 308 308 308 309 313 315 316 317 316 317 318 319 319 319 318 317 317 317 317 317 317 317 316 315
321 321 324 324 328 327 326 324 323 325 320 319 319 319 319 318 319 318 318 320 320 319 318 319 320 325 329 331 328 330 335 334 332 331 332 335 335 336 335 333 334 335 336 335 334 330 325 323 321 321 321 322 323 324 322 322 320 320 322 323 323 324 322 320 317 314 313 311 310 308 308 308 308 308 308 309 312 315 317 317 317 317 318 319 320 321 320 320 319 319 319 319 319 319 319 319 318
319 321 325 325 328 329 327 324 325 325 321 319 318 319 319 318 318 318 318 319 320 318 319 320 322 327 328 328 323 325 333 333 332 332 332 334 335 335 334 333 335 335 335 335 334 331 329 327 325 323 321 321 322 323 324 324 322 321 322 323 323 324 324 324 322 319 317 314 312 310 309 309 308 308 309 312 315 317 318 318 318 318 319 320 321 321 322 321 321 320 320 320 320 320 320 320 320
320 326 327 326 328 325 324 324 324 323 320 318 318 318 319 319 317 317 317 317 320 319 320 322 323 326 326 327 326 324 330 332 332 332 331 333 333 333 333 332 333 334 334 335 334 332 331 330 330 327 324 322 322 322 322 324 324 323 323 323 323 324 324 324 325 324 322 319 315 313 312 312 311 311 312 313 316 318 318 319 319 319 320 321 321 322 322 322 322 321 321 321 321 321 320 320 320
321 326 326 330 329 319 318 320 319 319 319 317 318 318 318 319 318 317 317 316 319 320 322 325 327 330 330 331 331 327 329 331 331 330 329 330 330 330 331 331 330 332 333 335 335 333 332 331 332 331 328 325 325 323 322 323 323 324 324 324 323 324 325 325 325 325 325 324 321 318 316 314 314 314 315 315 316 318 319 319 320 320 320 320 321 322 322 322 322 322 322 322 322 321 321 320 320
320 321 325 333 326 316 316 317 318 319 318 317 317 318 318 318 317 317 317 316 316 318 322 325 331 334 334 334 333 329 329 330 331 330 328 328 328 327 328 329 328 329 331 333 335 334 333 332 332 333 332 328 326 327 326 325 324 323 323 324 324 325 325 325 326 326 325 325 325 323 321 319 318 317 317 316 317 318 319 319 320 320 320 321 321 321 322 322 322 322 322 322 322 322 321 321 321
318 320 327 328 319 317 317 315 318 318 318 318 317 318 317 317 317 317 316 316 315 316 318 321 326 328 330 333 333 330 328 329 330 329 328 327 327 327 327 327 326 327 329 331 333 333 333 332 332 332 333 331 328 328 328 327 327 325 323 323 324 324 325 326 326 326 326 326 326 326 325 324 323 322 320 318 317 317 318 319 320 320 320 320 320 321 321 322 322 322 322 322 322 322 322 322 322
319 320 322 319 316 320 317 315 318 318 318 318 317 318 317 317 317 317 316 318 317 315 316 315 317 318 321 327 329 329 329 329 329 329 329 327 326 327 327 327 326 326 329 330 330 331 331 331 331 331 333 332 329 328 329 328 327 327 325 323 323 324 324 325 325 326 327 327 327 327 326 325 325 324 324 323 320 317 318 318 318 319 319 320 320 320 321 321 321 321 321 321 321 321 321 322 321
320 320 318 316 317 318 316 316 317 317 318 317 317 318 317 317 317 316 315 317 317 315 317 316 316 316 315 317 321 325 326 326 326 327 327 327 326 326 326 326 326 326 326 327 328 329 329 330 330 329 331 332 329 327 328 328 326 326 326 324 324 324 324 324 325 325 326 327 327 327 327 326 326 326 326 326 324 321 322 321 320 319 318 319 319 319 320 320 320 320 320 320 320 320 321 321 321
320 320 317 316 316 316 316 316 317 318 318 317 317 317 316 316 316 316 315 316 316 316 317 316 316 316 317 317 316 318 320 320 320 323 325 326 326 325 325 325 324 325 325 325 326 327 328 329 329 328 328 329 328 326 327 326 325 325 324 324 324 324 324 324 325 325 326 326 326 327 327 327 327 327 327 327 326 325 326 325 324 323 321 321 320 320 320 320 319 319 319 319 319 319 320 320 320
318 319 316 315 316 315 316 316 317 318 317 317 317 316 316 316 316 316 316 316 316 316 316 317 318 318 318 317 315 316 316 317 318 321 325 326 327 327 327 327 326 326 325 325 326 327 327 327 328 328 327 328 327 325 326 325 324 324 324 324 323 323 323 324 325 325 326 326 326 327 327 328 328 328 328 328 328 328 327 327 327 327 326 325 325 324 324 323 322 321 320 320 319 319 319 319 319
317 318 316 315 315 315 315 315 316 317 316 317 317 315 315 315 316 316 316 316 316 315 316 317 318 319 319 318 316 316 316 316 317 319 322 325 327 329 329 329 330 329 327 327 327 328 327 327 327 327 326 327 326 326 325 325 325 325 324 324 324 324 323 323 324 324 325 325 326 326 327 328 328 328 328 329 329 328 328 328 328 328 327 327 327 327 326 326 325 324 323 322 322 321 321 320 320
317 316 316 314 314 314 314 315 315 316 316 316 317 316 315 315 315 317 316 316 316 315 316 317 317 319 319 319 318 315 315 315 315 316 319 323 327 328 329 331 333 332 330 330 329 328 328 328 327 326 326 326 326 326 325 325 325 325 325 325 325 325 324 324 324 324 324 324 324 325 326 327 328 328 328 328 328 328 328 328 328 328 328 328 328 328 328 327 327 326 325 325 325 325 324 323 322
316 316 316 314 314 314 314 315 314 316 316 316 317 315 314 315 315 317 317 316 316 315 316 317 317 317 318 318 318 316 315 314 315 316 317 319 323 324 326 330 333 334 333 332 330 329 328 328 327 327 326 326 326 325 325 324 324 324 325 325 325 324 324 325 325 323 323 324 324 324 325 326 327 327 327 328 328 328 328 328 328 328 328 328 328 328 328 328 328 327 327 326 326 326 325 325 325
316 317 317 315 314 315 314 314 315 315 316 316 315 315 316 316 317 316 316 316 316 315 315 316 316 316 316 316 316 316 314 315 315 315 315 315 316 318 320 324 331 333 334 332 330 328 327 326 325 326 326 325 325 324 324 324 323 323 323 324 324 323 323 323 323 322 322 322 323 323 323 324 326 327 327 328 328 327 327 327 328 328 328 327 327 327 328 328 328 328 327 327 326 326 326 326 325
316 316 317 317 315 315 315 314 315 315 315 316 314 317 320 318 316 315 316 316 315 315 315 314 315 315 316 316 316 315 314 315 315 314 314 314 314 316 316 319 325 330 332 332 331 328 325 324 324 325 325 324 323 323 323 323 322 322 321 322 322 321 321 320 320 320 321 321 321 322 321 321 322 324 326 327 327 327 326 327 327 328 328 328 327 327 327 327 327 327 328 327 327 327 326 326 326
317 315 316 320 318 318 317 314 315 316 315 315 314 318 323 320 315 314 315 316 315 315 315 315 315 315 316 317 316 316 315 314 314 314 314 314 314 315 315 316 320 325 329 331 330 328 325 322 321 322 323 322 322 322 321 321 321 320 320 320 320 319 319 320 319 318 319 320 320 321 320 319 319 320 323 325 326 326 325 325 326 326 327 328 327 327 327 327 327 327 327 328 327 326 326 325 325
316 316 318 318 317 320 318 313 314 316 315 314 314 318 321 318 315 314 315 316 316 315 315 315 315 315 315 317 318 317 317 316 315 314 314 314 314 314 314 315 317 320 324 327 329 328 326 322 319 319 320 321 321 320 320 320 320 320 320 320 320 320 319 319 319 319 319 318 318 318 319 319 318 317 319 322 324 324 324 324 325 326 327 328 328 328 327 327 326 326 326 326 326 326 325 324 324
316 319 322 319 317 318 317 315 314 314 315 313 314 318 319 316 314 314 314 314 315 315 315 315 315 315 315 316 318 319 319 320 318 316 314 314 314 315 314 314 315 316 318 321 324 325 323 320 318 317 318 319 319 320 319 319 319 319 319 320 321 320 320 319 319 319 318 317 315 314 315 316 317 317 317 319 321 322 322 322 323 325 326 326 326 326 325 325 326 326 325 325 325 324 324 324 323
316 317 321 322 319 317 317 317 315 313 314 315 314 316 319 316 313 313 315 314 314 314 314 315 315 315 315 315 317 318 320 320 319 316 314 314 314 314 314 314 314 314 315 317 319 319 318 317 316 315 316 317 318 319 319 318 318 319 319 320 321 321 320 319 319 317 316 314 313 313 313 313 314 315 316 317 319 320 321 322 323 324 325 325 326 325 324 324 325 325 324 324 324 324 323 324 324
319 317 317 319 317 316 318 318 316 314 314 316 314 315 319 318 313 313 314 314 314 315 315 315 315 315 316 316 316 317 318 319 317 315 314 314 313 314 314 314 314 314 314 315 317 318 317 317 316 315 316 316 316 318 318 318 318 318 319 320 321 321 320 318 317 316 314 313 313 313 313 313 313 313 315 316 316 317 319 320 321 322 324 325 326 325 324 324 325 325 324 324 324 324 324 325 326
321 321 318 320 318 315 318 317 314 314 314 316 316 315 316 316 315 313 313 313 313 314 315 315 315 315 316 316 316 316 316 316 314 314 314 314 314 314 314 314 314 314 313 314 315 316 316 316 316 315 315 315 315 316 317 317 317 317 317 318 319 319 318 316 315 315 314 314 314 314 313 313 314 314 315 316 316 317 318 319 318 318 319 322 323 323 323 324 324 324 324 324 324 324 325 326 326
318 319 317 320 320 315 316 316 314 313 315 316 316 315 315 316 316 313 312 313 313 313 313 314 314 314 315 316 315 315 315 315 314 314 314 314 314 314 314 314 314 314 314 314 314 315 315 315 315 315 314 315 315 315 315 315 316 316 315 316 316 316 315 314 314 314 314 314 314 314 314 314 315 316 317 319 321 321 321 320 319 316 316 320 322 322 322 323 323 323 324 324 323 323 323 323 324
314 317 317 318 320 318 314 315 315 312 314 317 316 315 315 315 315 312 311 312 312 312 312 313 314 314 315 315 315 315 315 315 315 315 315 315 315 314 314 314 314 314 314 314 314 314 314 314 314 314 314 314 314 314 314 314 315 315 315 315 315 315 315 315 315 315 315 315 315 314 314 314 315 316 317 320 322 323 324 323 320 318 319 322 323 322 321 321 322 324 326 327 327 325 322 321 322
315 317 317 317 319 318 314 314 316 314 314 317 317 316 316 316 316 312 310 311 313 314 314 314 314 314 315 315 315 315 315 315 315 315 315 315 315 315 314 314 314 314 314 314 314 313 314 314 313 314 314 314 314 314 314 314 314 314 314 315 315 316 316 316 316 316 316 315 315 314 314 315 316 315 317 318 320 323 324 322 320 319 321 324 325 325 322 321 324 328 329 328 327 325 323 322 322
318 319 316 317 318 317 316 314 314 314 314 316 316 316 316 315 316 315 312 312 313 314 315 315 315 315 315 315 315 315 315 315 315 315 315 315 315 315 315 314 314 314 314 315 314 314 314 314 314 314 314 314 314 314 314 314 314 315 315 316 317 317 317 317 316 316 316 315 315 316 316 316 316 316 317 317 318 320 321 320 321 321 322 324 324 324 322 321 324 327 326 325 324 323 322 321 322
320 323 322 321 319 318 318 316 314 314 313 315 314 314 319 317 314 315 313 312 312 313 315 314 315 315 315 316 315 315 315 314 315 315 315 315 315 316 315 315 314 314 314 314 314 315 314 314 314 314 314 314 314 314 314 314 314 315 315 317 317 317 317 316 316 316 315 316 315 316 317 317 317 318 319 319 320 321 322 322 323 324 324 324 324 325 323 321 323 323 323 325 325 324 322 321 321
318 322 324 324 321 320 320 318 318 315 314 317 313 313 327 330 319 314 313 312 312 313 312 312 315 316 315 316 315 315 315 314 315 315 315 316 315 315 315 315 315 315 314 314 314 314 315 315 314 314 314 314 314 314 314 314 315 315 315 316 316 316 316 315 315 316 316 316 317 317 318 318 318 319 320 323 324 324 324 324 324 324 323 325 326 324 323 324 326 327 326 326 326 323 321 320 322
315 317 321 323 322 323 322 319 321 319 315 315 313 313 324 327 322 320 317 314 314 313 311 312 313 315 315 315 316 315 315 315 315 315 316 316 316 316 316 315 315 315 314 314 314 314 314 314 314 314 314 314 314 314 314 314 314 314 314 315 315 315 315 315 316 316 316 317 317 317 319 320 321 322 323 324 324 324 324 324 324 324 323 325 326 324 325 328 328 327 326 325 325 323 320 320 322
317 319 322 323 322 324 323 320 323 323 317 317 318 316 316 317 320 322 319 315 315 314 314 313 312 314 316 315 315 315 316 316 315 316 317 317 317 317 316 316 315 315 315 314 314 313 313 314 314 314 314 314 314 314 314 314 314 314 314 314 315 315 315 316 317 318 317 317 317 317 319 321 323 324 324 324 324 323 323 323 323 324 325 326 326 325 326 326 326 325 323 322 324 323 321 323 324
319 323 324 323 323 326 326 323 323 321 317 320 323 316 314 322 328 323 317 315 315 316 317 315 313 315 316 316 316 316 316 317 317 318 318 318 317 317 316 316 315 314 314 314 314 314 314 313 313 313 314 314 314 314 314 314 314 314 314 315 315 316 317 318 319 318 318 317 316 316 317 318 319 319 320 320 321 321 321 321 322 324 325 324 324 324 324 324 324 325 325 324 323 321 324 325 325
318 321 324 325 327 327 325 326 327 317 314 324 328 318 313 322 330 323 315 316 318 318 318 314 311 314 316 316 316 316 316 317 317 317 317 317 316 316 315 315 315 314 314 314 314 313 314 314 313 313 313 314 314 314 314 314 314 315 315 315 317 317 318 318 318 317 317 316 316 315 315 315 316 316 317 317 317 318 318 318 319 320 321 321 322 322 321 321 322 322 323 323 321 319 321 322 322
315 321 324 323 326 330 330 332 329 317 319 332 331 321 313 316 325 324 316 318 320 317 317 316 313 312 314 314 315 315 315 315 315 315 315 315 315 314 314 314 314 314 314 314 313 313 313 313 313 314 313 314 314 314 314 314 315 316 316 317 318 318 317 316 315 315 315 315 314 315 315 316 316 316 316 316 315 315 315 315 316 316 317 317 318 318 318 318 318 319 318 318 318 319 319 320 321
320 325 324 318 321 332 333 330 323 317 325 331 323 317 314 315 323 324 318 318 319 316 317 321 317 313 313 314 315 315 315 314 314 314 314 314 313 313 313 313 313 313 313 313 313 313 313 312 312 313 313 313 314 314 314 314 315 316 317 317 316 316 315 314 315 315 314 314 314 315 316 316 315 314 314 314 314 313 313 313 313 313 313 313 314 314 314 314 314 315 315 315 316 318 318 318 318
323 322 318 316 319 323 323 323 322 321 324 320 314 315 317 317 319 319 318 318 316 314 315 319 316 313 314 315 314 314 314 314 313 313 313 313 312 312 312 312 312 312 312 312 312 312 312 312 312 311 312 312 313 313 313 314 314 314 314 314 314 314 314 314 314 314 314 314 315 315 315 314 313 313 313 313 313 313 313 313 313 312 312 312 312 312 312 312 312 312 312 313 313 313 313 313 314
319 316 315 320 321 316 315 319 320 320 320 315 311 314 318 318 317 318 318 315 313 311 312 316 315 314 315 314 314 314 313 313 313 313 313 313 313 312 312 312 311 311 311 311 311 311 311 311 311 311 311 311 311 311 312 312 312 312 312 311 312 313 313 313 314 314 315 314 314 314 314 314 314 314 314 313 313 313 313 313 313 313 313 313 313 312 312 312 312 312 311 311 311 311 311 311 311
318 318 317 320 324 321 319 321 321 319 319 315 310 314 321 320 317 317 313 310 311 312 313 315 315 315 315 314 314 314 313 313 313 314 314 314 313 313 312 312 311 310 311 311 311 311 311 311 311 311 310 310 310 310 310 310 310 310 311 311 312 313 313 314 314 314 314 314 314 314 314 314 314 314 314 313 313 313 313 313 313 313 313 313 313 312 312 312 312 312 311 311 311 311 311 311 311
318 319 318 317 322 328 325 323 326 324 319 316 313 318 324 319 315 315 310 309 311 310 312 314 314 315 314 314 314 313 313 314 314 314 314 314 313 313 313 312 311 310 310 311 312 312 312 311 311 310 310 310 310 310 310 310 310 311 311 312 313 313 314 314 314 313 314 313 314 314 314 314 314 313 313 313 313 313 313 313 312 312 312 312 312 312 312 312 311 311 310 310 310 310 310 310 309
318 317 319 320 319 325 324 315 316 317 317 319 316 317 322 316 315 316 312 313 313 309 310 312 313 314 313 313 313 313 314 314 314 314 314 314 314 313 313 312 312 312 312 313 313 313 312 311 311 311 310 310 310 310 310 310 311 312 313 313 314 314 314 313 313 314 314 314 314 314 313 313 313 313 313 313 312 312 312 312 312 311 311 311 311 310 310 310 309 309 308 307 306 306 305 305 304
319 317 319 320 316 320 323 316 314 313 316 322 316 314 320 317 318 321 313 313 315 312 310 308 310 312 311 312 313 313 314 314 314 315 314 315 314 314 314 313 313 313 313 314 314 313 313 311 311 311 310 311 310 311 311 312 313 313 314 314 313 313 313 314 314 314 314 314 314 314 313 313 313 313 312 312 312 311 311 311 311 310 310 309 308 307 307 306 305 305 304 303 302 302 301 301 301
317 317 316 318 317 319 321 317 317 315 314 320 318 315 318 318 321 323 315 315 318 314 312 310 309 311 310 312 313 313 315 314 314 315 314 315 315 314 315 314 314 314 313 314 313 313 312 311 311 311 311 311 312 312 313 314 314 314 314 314 313 314 314 314 314 314 314 314 313 313 313 312 312 312 311 311 311 310 310 309 308 307 307 306 305 304 303 303 302 301 301 300 300 299 299 298 298
313 314 312 316 319 321 320 316 318 320 318 321 319 315 320 323 323 324 319 320 321 315 314 312 308 309 310 312 314 314 314 314 314 314 314 315 315 315 315 314 314 313 313 313 313 312 312 312 312 312 312 313 313 314 314 314 314 313 313 314 314 314 314 313 314 313 313 313 313 312 312 312 311 311 310 310 309 308 307 306 305 304 303 303 302 301 301 300 300 299 298 298 298 297 297 297 297
313 315 313 314 314 316 318 316 320 325 321 321 318 317 330 332 322 319 317 318 321 315 315 313 307 308 311 311 313 314 314 314 314 314 314 314 315 315 314 314 314 313 313 313 312 313 313 313 314 314 314 314 314 314 314 313 314 313 313 314 314 314 314 313 313 313 313 312 312 311 311 310 310 309 308 307 306 305 304 303 303 302 301 301 300 299 299 298 297 297 297 297 297 297 297 297 297
313 314 314 315 314 315 317 315 319 321 318 324 321 317 331 333 318 316 315 314 316 310 309 310 308 309 311 311 313 314 313 314 314 313 314 314 315 315 314 314 314 314 314 314 314 314 314 314 314 314 314 314 313 313 313 313 313 313 313 313 313 313 313 313 313 312 312 311 311 310 310 309 308 306 305 304 303 303 302 301 301 300 299 299 298 298 297 297 297 297 297 297 297 297 297 297 297
Wind_Speed
3 3 3 3 4 4 4 2 1 2 1 0 2 1 1 2 4 4 5 6 5 5 12 14 16 16 8 11 14 15 14 5 3 3 6 14 21 20 16 15 14 13 13 13 11 10 9 9 10 10 11 13 14 18 19 18 17 16 16 15 15 14 13 13 12 11 8 6 7 7 6 7 11 13 13 15 14 14 15 16 16 15 15 15 15 15 15 16 15 14 13 12 11 12 12 12 13
3 3 4 5 4 3 4 0 1 3 3 1 2 2 3 2 5 6 5 5 5 7 13 17 19 19 16 16 13 12 16 11 8 16 21 23 22 18 15 15 14 14 13 13 12 10 10 10 11 12 13 13 15 18 19 19 18 16 16 15 14 13 12 11 9 7 5 5 7 7 7 9 11 13 15 15 15 15 16 16 15 14 15 15 14 14 14 15 16 16 15 14 14 13 13 13 14
3 4 5 6 2 3 6 2 1 0 2 2 3 2 2 6 5 6 9 11 13 13 12 13 15 17 18 15 11 8 8 12 20 27 26 23 22 20 16 15 15 14 14 14 12 11 11 10 12 13 14 14 16 18 18 19 18 17 17 15 14 12 11 9 8 5 5 5 7 8 8 9 12 15 15 15 14 15 15 15 14 15 15 14 14 14 14 15 15 15 16 15 14 14 14 15 16
3 4 4 3 3 2 2 2 2 2 2 3 2 3 3 8 7 7 13 18 16 13 11 10 8 13 18 14 10 11 8 10 18 24 25 22 21 21 19 17 17 15 15 14 13 12 11 11 13 13 14 14 16 17 18 18 17 18 18 16 14 12 10 8 7 7 7 8 9 9 9 11 13 15 14 14 14 14 15 14 14 14 14 14 14 14 14 14 14 15 15 15 14 14 15 15 17
4 4 3 2 3 1 1 1 0 3 1 4 3 2 4 9 9 8 13 17 14 11 10 8 4 10 17 12 8 8 10 13 15 19 24 22 19 21 21 19 18 16 16 14 13 12 12 12 13 14 14 14 15 16 16 16 17 19 19 17 14 11 9 7 7 7 8 9 10 10 11 12 13 13 13 13 14 14 14 14 13 13 14 14 14 14 14 14 13 14 14 14 14 14 15 16 17
6 5 3 2 2 2 1 0 1 1 4 4 5 4 6 8 11 13 14 15 12 10 10 9 8 11 13 11 11 9 10 13 14 17 23 23 20 21 21 19 18 17 16 14 13 13 13 13 13 14 14 15 15 14 15 14 15 19 19 17 15 11 9 7 6 6 7 9 10 11 12 12 12 12 12 13 13 13 13 14 13 13 13 14 14 14 14 13 13 13 14 14 14 14 15 16 16
6 5 2 1 2 1 1 2 3 2 3 2 8 6 6 10 16 17 13 11 9 9 10 10 13 13 9 10 11 9 9 11 15 19 23 24 21 20 19 19 18 17 16 15 14 14 14 13 14 14 14 15 15 15 14 13 15 18 19 16 15 11 9 8 7 7 8 10 10 11 11 11 12 12 12 12 12 12 13 13 13 13 13 13 13 13 13 13 13 13 13 13 13 14 15 15 15
5 3 2 1 1 2 2 2 3 3 3 4 9 11 12 15 19 15 8 8 6 6 9 10 14 11 4 11 9 7 11 10 14 20 23 23 22 20 19 18 19 18 16 15 15 15 14 14 14 14 14 15 15 15 15 15 16 17 18 16 14 11 9 8 8 9 10 10 10 10 10 10 11 13 12 11 12 12 12 13 12 12 12 12 13 13 13 13 12 12 12 12 13 14 14 14 13
4 3 1 2 0 2 1 0 1 2 2 5 8 14 19 19 18 13 7 8 9 8 8 8 11 9 6 13 12 8 12 10 14 20 23 23 21 20 19 18 18 18 16 15 15 15 15 14 14 14 15 15 15 16 16 17 17 17 17 16 14 10 8 8 9 9 10 10 9 9 9 10 11 13 12 11 11 12 12 12 12 12 12 12 12 12 12 12 12 12 11 11 12 13 13 13 13
3 3 1 2 0 2 3 2 2 1 2 6 7 14 20 17 17 17 12 9 11 11 8 8 10 13 12 13 12 11 12 13 16 21 22 21 18 17 17 17 16 17 16 16 15 15 15 14 14 14 15 15 15 15 16 17 17 17 17 15 13 11 10 10 10 10 10 10 9 9 10 10 10 11 11 11 11 11 12 12 12 12 12 12 12 12 12 12 12 11 11 11 11 11 12 12 12
2 3 2 1 1 2 4 1 3 2 2 5 5 10 18 18 17 16 15 11 12 13 9 9 13 18 16 9 10 11 12 14 17 23 24 21 18 16 15 14 14 15 15 16 16 15 15 14 14 14 15 15 15 15 16 16 17 17 16 16 15 14 13 12 11 10 10 10 10 10 11 11 10 11 11 11 11 11 12 12 12 12 12 13 13 12 12 12 11 11 11 10 10 10 10 10 10
2 2 2 2 2 4 3 4 5 2 1 3 2 5 11 17 16 13 14 12 12 12 10 7 11 17 11 5 13 14 13 15 19 25 26 23 19 16 14 13 14 14 14 15 15 15 15 14 14 14 15 15 15 15 15 16 16 16 16 15 15 15 14 12 11 11 10 10 10 11 12 12 11 11 11 11 11 11 12 12 12 12 12 12 12 12 11 11 11 11 10 10 10 9 9 9 9
4 1 3 2 3 4 2 4 6 4 2 2 4 5 8 11 13 16 17 14 14 10 8 6 9 13 8 6 16 16 16 17 21 27 27 23 19 16 15 13 13 14 14 15 15 15 14 13 13 13 14 14 15 15 16 16 16 16 16 15 15 14 14 13 11 11 11 11 11 11 11 11 11 11 11 12 12 12 12 11 12 12 12 12 11 11 11 11 11 11 10 10 10 9 9 8 7
5 3 2 2 3 1 4 4 4 5 2 3 6 9 8 6 8 19 20 11 9 11 9 6 6 9 8 9 13 19 19 19 23 28 27 21 18 16 15 14 14 14 13 15 14 14 14 13 13 13 13 13 14 15 15 15 15 15 15 15 15 14 13 12 11 11 11 11 11 11 11 10 10 11 11 12 12 12 11 10 11 11 11 11 11 11 11 11 10 10 11 11 10 10 10 9 8
7 6 1 2 3 2 3 4 4 5 3 3 9 12 9 9 9 16 18 9 6 12 12 7 5 4 9 10 12 23 24 21 25 29 28 22 18 17 16 15 15 15 13 14 14 13 13 12 12 12 12 12 13 14 14 14 14 14 14 14 14 13 13 12 11 11 11 11 11 11 10 10 10 10 11 11 11 11 11 10 10 10 10 10 11 10 10 10 10 10 10 10 10 10 10 10 9
8 6 2 1 2 3 3 3 5 5 2 5 11 13 9 9 11 13 12 13 11 11 9 6 5 3 10 11 11 25 26 23 28 30 29 24 21 19 16 15 14 14 13 13 13 13 13 12 12 11 11 11 11 12 12 12 13 12 12 11 11 12 12 12 11 11 11 11 11 11 10 10 10 10 10 10 10 10 10 10 9 9 9 9 10 10 9 9 9 10 9 9 9 9 10 10 9
7 3 1 2 3 3 3 4 5 5 4 6 11 12 8 6 10 14 10 15 15 9 9 7 6 6 8 8 11 24 26 25 30 31 31 27 25 21 17 16 16 15 14 13 12 14 14 12 12 11 11 11 11 11 11 11 12 11 10 9 9 10 10 11 11 11 11 11 11 11 10 10 10 10 10 9 9 9 9 9 9 8 8 8 8 8 8 8 8 8 8 8 8 8 8 8 9
5 1 2 3 2 2 4 5 6 7 6 8 12 12 11 6 8 14 11 13 15 11 11 10 8 8 7 10 15 21 24 28 32 32 32 30 28 25 21 20 20 19 18 15 13 14 14 13 13 12 11 11 11 10 10 10 10 10 10 9 8 8 8 9 9 10 10 10 10 10 10 10 10 9 9 9 8 7 7 7 7 7 7 6 6 6 6 6 7 7 7 7 7 7 7 6 7
5 2 2 4 4 1 2 7 10 10 10 12 15 13 12 11 11 13 8 10 16 11 10 11 12 13 12 17 19 20 23 29 32 32 32 31 29 28 24 22 23 23 22 19 15 14 14 14 14 13 12 12 12 11 10 10 10 10 9 9 8 7 7 7 7 8 8 8 9 9 9 10 10 8 8 8 7 6 6 5 5 5 5 5 4 5 4 4 5 5 5 5 5 5 5 5 5
6 3 1 5 5 1 4 8 13 15 19 17 14 12 10 12 14 12 8 10 12 10 10 11 16 19 19 21 21 20 23 28 31 31 31 31 29 27 25 23 23 25 25 22 19 16 15 14 14 13 12 13 12 12 11 10 10 10 9 9 9 8 7 6 6 6 6 6 7 7 7 9 9 7 6 7 6 5 5 4 4 3 3 3 3 3 3 2 2 2 3 2 3 3 3 4 4
4 4 2 6 5 3 3 6 15 23 25 20 15 11 9 13 14 11 11 9 4 11 17 12 16 22 22 23 23 21 23 27 30 30 29 29 27 26 23 21 21 23 25 24 21 19 18 16 15 13 12 12 12 11 11 10 10 10 10 10 10 9 8 7 7 6 5 5 5 5 5 7 8 6 5 5 4 4 3 3 2 2 1 2 1 1 1 1 2 2 3 3 3 4 5 5 5
3 3 2 3 5 4 3 8 17 23 23 20 16 12 11 13 12 12 12 7 5 12 18 16 16 20 20 21 22 21 23 26 28 29 29 27 26 25 24 21 20 22 24 24 23 21 20 18 17 16 14 14 13 12 11 11 11 10 11 11 10 10 9 8 8 7 7 6 4 4 4 4 6 5 4 4 3 3 2 2 2 1 1 1 1 1 1 2 3 4 4 5 5 5 6 8 8
4 3 1 1 4 7 7 9 16 22 22 18 15 12 14 12 8 12 10 6 7 9 14 18 16 16 17 18 20 20 21 24 26 28 28 27 25 24 24 22 21 21 23 24 23 22 21 20 19 18 17 16 15 14 13 13 12 11 11 11 11 11 10 9 9 8 8 7 6 4 4 3 4 4 4 4 4 3 3 2 2 2 3 3 4 3 3 5 5 5 6 6 6 6 7 8 8
6 4 2 1 4 9 9 10 15 21 21 16 16 14 14 11 6 9 8 6 9 7 8 15 17 16 17 18 18 17 17 20 22 24 26 26 24 23 22 21 20 20 21 22 22 22 22 21 20 20 19 17 16 15 15 14 13 12 11 11 11 11 11 11 10 9 9 8 8 6 6 6 5 6 5 5 5 5 5 4 4 4 4 5 6 5 5 6 7 7 7 8 8 8 9 9 9
8 4 3 5 5 7 9 10 15 18 18 16 17 13 11 12 7 8 10 9 9 7 7 11 17 19 19 17 16 15 15 17 19 23 25 25 24 22 21 20 20 20 20 20 20 20 21 21 21 21 20 19 17 16 16 14 13 12 12 11 10 10 11 11 11 10 10 10 10 9 8 8 8 7 7 8 7 7 7 6 7 7 7 7 7 7 7 7 8 8 9 9 10 10 11 10 10
9 9 6 7 6 8 11 10 13 15 16 17 14 8 7 10 6 6 12 13 11 9 9 11 16 20 20 18 16 15 15 17 18 20 22 23 23 23 21 20 20 20 19 18 19 19 19 19 20 21 20 19 18 17 17 16 15 14 13 12 11 10 10 10 11 11 11 11 11 11 10 10 10 10 9 9 10 9 9 8 9 9 9 9 8 9 10 9 10 10 11 11 11 12 12 12 12
10 10 7 7 7 8 9 8 10 13 13 15 12 6 6 8 4 4 11 16 15 13 12 13 15 18 19 18 17 15 15 16 16 17 20 23 24 24 23 21 21 20 19 19 19 19 18 19 19 19 18 18 19 19 18 18 17 16 15 13 13 12 12 12 12 12 12 11 11 11 11 12 12 12 11 11 11 11 11 10 10 11 11 10 10 11 11 12 12 12 13 13 13 14 14 14 14
10 13 7 5 5 4 7 8 10 10 7 11 11 6 4 5 3 7 12 18 19 17 16 16 16 16 17 17 17 17 16 16 16 18 20 23 24 25 24 24 24 22 21 20 18 18 19 20 19 18 18 17 19 19 19 19 18 17 16 15 14 14 13 13 13 13 12 12 12 11 11 12 13 13 13 12 12 12 13 12 12 13 13 13 13 13 13 14 14 14 14 15 15 15 16 16 16
14 16 6 2 1 1 5 8 9 7 5 11 13 6 1 1 8 12 14 20 22 19 18 18 17 16 16 16 16 17 17 17 19 21 19 20 21 22 24 24 25 24 23 20 18 18 19 20 20 20 19 19 19 19 19 19 18 17 17 16 15 15 14 13 14 13 13 12 12 12 12 12 13 14 14 14 14 14 14 14 14 14 14 15 15 15 15 15 16 16 16 17 17 17 17 17 18
14 9 5 4 2 2 6 7 7 5 6 12 10 2 4 6 13 13 15 22 23 19 19 20 19 18 17 16 17 17 18 20 21 21 19 18 19 20 21 22 24 25 24 22 20 20 19 18 19 20 21 21 19 19 19 19 18 17 17 16 16 15 14 14 14 13 13 13 13 14 13 13 12 13 14 15 16 16 16 16 16 16 16 16 16 16 17 17 17 17 18 19 18 19 19 18 20
8 3 3 5 2 4 6 6 8 5 5 10 6 1 5 7 11 12 19 23 22 21 20 20 19 19 19 19 19 19 19 21 20 20 19 18 18 19 19 21 24 26 26 25 23 21 20 19 18 19 20 20 19 19 19 19 19 18 17 17 16 16 15 15 15 14 14 14 15 15 15 15 14 13 14 16 17 18 18 18 18 18 17 17 17 18 18 18 19 19 19 20 20 20 19 18 19
2 4 3 1 4 4 4 5 9 6 4 7 5 1 5 7 6 12 22 24 22 22 20 18 18 18 20 21 21 21 20 20 20 19 19 19 19 19 19 20 22 25 27 27 25 24 23 22 19 18 18 19 19 19 18 19 19 19 18 18 18 17 17 16 16 16 16 16 16 16 16 16 16 15 15 16 18 19 20 20 20 19 19 19 18 19 20 20 20 20 21 21 22 21 19 18 18
2 3 4 3 5 3 2 4 9 5 4 5 4 2 3 5 6 14 19 22 20 19 19 19 18 17 20 22 22 22 22 22 22 21 20 20 20 20 19 20 20 22 25 27 27 26 25 23 21 19 19 18 19 18 18 19 19 19 19 19 19 19 19 18 17 17 17 17 16 16 16 16 17 17 17 18 19 21 22 22 21 20 19 20 21 21 22 21 21 21 21 21 21 20 19 18 18
3 1 2 3 5 5 2 3 7 7 5 5 4 2 4 6 6 15 18 20 19 18 19 19 19 19 19 21 23 24 24 25 25 24 22 21 20 20 20 20 20 20 22 25 26 26 25 23 21 20 19 18 18 18 18 18 18 19 20 20 20 20 20 19 18 18 17 16 16 16 16 16 16 16 17 18 20 21 22 22 23 21 20 21 22 23 24 23 22 21 20 19 19 20 19 19 19
3 2 2 2 3 5 5 3 5 7 5 6 6 4 9 8 5 12 17 19 19 20 21 20 20 22 21 21 22 24 25 27 26 25 22 22 21 20 20 20 21 21 21 23 24 25 24 23 22 21 20 19 18 18 18 18 17 18 20 21 21 21 21 20 19 18 17 16 16 16 17 17 16 16 16 18 19 19 19 20 21 21 21 22 23 24 25 25 23 20 19 18 19 20 20 20 21
6 6 4 4 4 3 5 3 3 6 5 5 7 7 10 8 7 10 15 17 19 20 21 22 20 22 24 23 22 22 24 26 24 23 23 23 23 21 20 21 22 22 21 22 23 24 25 24 23 22 20 19 18 18 19 19 19 18 19 20 21 21 20 19 18 17 16 16 17 16 16 16 16 16 17 17 18 17 16 16 17 17 18 20 21 22 21 22 22 20 19 19 20 21 22 23 24
5 5 4 5 5 3 3 2 4 2 5 5 7 7 8 7 8 11 15 15 16 18 18 22 22 22 25 25 23 23 23 22 19 20 22 22 23 22 21 21 22 23 23 23 24 24 24 24 24 22 21 20 20 20 20 20 20 19 19 19 19 18 17 17 16 16 16 16 16 16 15 15 15 16 16 17 17 17 16 16 16 16 16 16 17 17 17 19 20 20 20 22 23 24 25 25 25
4 5 5 5 4 3 3 2 4 3 3 4 3 4 9 9 8 11 13 12 14 20 19 22 25 24 25 25 25 25 23 20 17 19 21 21 23 23 23 22 23 24 25 25 25 24 24 24 24 22 21 21 21 20 20 20 20 18 17 16 15 15 15 16 15 15 15 15 14 14 14 14 15 15 15 16 16 16 17 18 19 18 16 16 18 19 19 18 18 22 24 24 25 26 26 22 21
4 5 6 5 4 2 2 3 4 4 2 3 2 3 9 9 7 10 12 13 18 26 25 24 26 26 26 26 26 26 24 22 21 21 21 22 23 23 24 24 24 24 25 25 25 25 25 25 24 23 22 22 21 20 20 20 19 17 17 16 15 15 15 15 15 15 15 15 14 13 13 14 14 14 13 14 15 16 18 20 20 18 15 16 19 22 22 20 20 24 26 26 26 27 26 22 22
3 4 5 4 4 3 1 3 3 3 2 2 1 1 6 7 5 8 14 19 20 24 28 27 27 27 26 26 26 27 26 25 24 24 24 24 24 24 25 25 25 25 25 25 26 26 26 26 25 24 23 22 22 21 21 19 18 18 17 17 16 16 17 17 17 17 16 15 14 13 14 14 13 13 13 14 15 16 18 18 17 16 16 16 19 21 21 19 19 22 23 24 26 27 26 25 25
2 4 5 4 5 3 2 2 1 3 3 1 3 4 5 5 6 8 12 16 16 20 26 28 30 29 26 26 26 27 27 27 26 26 26 26 26 26 25 23 23 25 26 26 26 26 26 26 25 25 24 23 23 22 21 21 21 20 20 20 19 20 20 20 20 18 17 15 13 13 14 14 14 14 15 15 15 16 16 16 15 16 17 17 18 19 19 17 17 18 19 21 25 26 26 25 25
3 2 4 6 8 5 5 6 4 4 4 3 2 1 5 5 6 9 8 7 11 16 20 25 31 31 29 29 27 27 27 27 26 26 26 27 26 26 25 24 24 25 25 25 25 26 25 25 25 25 25 24 23 23 23 23 23 23 23 23 23 23 22 21 19 16 14 14 13 14 14 14 15 16 16 16 16 16 16 16 16 17 17 17 18 20 19 18 18 20 20 20 23 24 24 24 24
2 4 2 6 8 7 8 7 4 3 3 3 2 4 5 6 4 8 6 5 10 12 12 20 28 29 30 31 28 27 28 28 28 27 27 27 27 26 26 25 25 24 24 24 26 26 26 26 26 26 26 26 25 24 24 24 24 24 24 25 24 23 22 20 17 15 14 15 15 15 16 16 16 17 17 17 17 18 17 17 17 18 17 15 17 19 19 19 20 21 21 22 23 21 20 22 23
4 3 4 9 9 8 8 7 4 3 3 3 4 4 3 4 5 8 4 5 6 7 9 14 21 24 27 28 26 26 26 27 28 29 28 28 27 27 26 25 24 23 23 25 26 27 28 28 27 28 28 28 27 26 26 26 25 24 24 24 23 23 21 19 17 16 16 17 17 18 18 18 18 17 17 18 19 19 18 17 16 16 15 15 16 17 18 19 19 20 21 21 22 21 21 23 24
5 4 7 8 8 8 7 6 4 1 2 2 5 1 1 5 6 7 2 2 4 7 9 11 17 24 25 26 26 25 24 24 25 27 27 27 27 26 25 24 23 23 25 26 26 26 27 28 28 28 29 29 28 27 26 26 25 24 24 24 23 23 22 20 19 19 19 20 19 19 19 19 19 18 17 17 18 18 17 17 16 16 16 17 17 16 16 16 17 18 19 18 19 20 21 23 24
4 5 6 5 5 5 5 5 4 3 2 4 6 2 2 5 6 4 2 1 5 8 8 9 16 23 24 25 25 25 24 24 25 26 26 26 27 27 27 27 26 26 26 27 27 27 28 28 28 29 29 29 28 27 27 26 26 25 25 25 25 23 21 20 21 21 21 21 20 19 18 16 15 14 13 12 13 14 15 15 16 17 18 19 19 18 18 18 18 18 19 20 21 21 20 20 20
7 6 7 6 6 5 4 3 4 3 2 6 7 3 3 3 6 4 4 4 6 7 6 7 11 16 20 21 21 22 23 23 24 25 26 27 27 28 29 29 29 28 28 28 29 29 30 30 30 29 29 29 28 27 26 26 27 26 26 26 24 22 21 21 22 22 21 19 18 17 13 10 10 10 10 10 9 10 11 13 13 15 16 18 19 20 20 20 20 20 21 23 24 23 22 21 22
7 5 5 5 4 5 5 4 3 2 5 6 4 2 3 3 5 5 5 6 5 7 6 7 8 12 16 17 17 18 18 19 20 22 23 25 25 27 28 28 29 30 30 29 29 30 30 31 31 31 30 29 28 27 26 26 26 26 25 24 22 21 21 22 22 20 18 16 14 12 9 7 7 8 8 7 7 6 7 8 9 10 11 12 14 15 16 17 17 19 20 21 21 22 23 24 25
5 5 6 5 2 3 2 3 1 2 5 4 2 0 2 5 7 8 9 10 8 7 8 9 11 15 17 16 15 14 14 15 16 18 20 21 22 23 24 25 26 27 28 28 28 28 29 30 31 31 30 29 27 26 25 25 24 24 23 21 22 22 23 22 20 18 16 13 11 9 8 7 6 6 5 4 4 4 4 4 5 5 6 7 8 9 10 11 12 13 14 15 16 17 18 19 21
5 6 6 5 3 3 1 3 2 3 4 3 2 1 2 4 6 10 13 15 14 10 8 9 14 18 18 16 14 13 14 14 15 16 17 18 19 20 21 21 22 23 24 24 24 24 25 26 28 29 29 27 26 25 25 24 24 23 22 22 23 23 22 20 17 15 12 11 10 8 7 7 6 4 3 3 3 2 2 2 3 3 4 5 5 6 7 7 8 9 10 11 12 13 14 15 17
5 5 6 6 5 4 4 4 3 3 3 3 3 1 3 4 4 7 9 11 11 9 9 10 14 16 15 14 13 13 14 14 15 15 15 16 17 17 18 18 18 19 19 19 19 20 20 22 24 26 27 27 26 26 25 25 24 23 22 22 21 20 17 15 13 12 11 10 9 8 6 5 3 2 2 2 2 3 3 4 4 5 5 6 6 7 7 7 8 8 9 10 11 11 12 12 13
3 3 6 4 6 5 3 4 6 5 1 1 2 3 4 4 6 8 4 3 2 5 8 11 14 14 14 14 14 13 14 14 14 14 14 14 14 14 14 14 14 15 16 16 17 17 17 19 21 23 25 26 26 26 25 24 23 21 20 18 17 15 13 12 12 12 11 9 7 6 4 2 1 1 1 1 2 3 4 5 5 6 7 7 8 8 9 9 9 9 9 10 10 11 11 12 12
1 3 4 5 5 7 5 3 1 4 2 2 2 3 5 3 6 8 1 2 2 2 5 10 14 15 15 15 14 13 14 14 14 14 13 13 13 12 12 12 13 14 16 16 16 16 16 17 19 21 23 23 22 22 21 20 19 18 16 15 14 14 14 14 13 12 10 8 6 5 4 3 2 2 1 0 1 2 3 4 4 5 6 7 8 9 9 10 10 10 11 11 11 11 12 13 13
4 3 5 4 2 4 4 2 2 3 2 3 2 4 4 2 3 6 2 3 7 6 6 8 11 14 16 16 15 15 14 14 14 13 12 12 12 13 13 13 15 15 16 17 16 17 17 18 19 20 20 20 19 19 18 17 17 16 16 16 17 17 16 15 13 11 9 7 6 5 5 4 4 3 2 2 2 2 2 3 4 5 6 6 7 8 8 9 9 10 11 11 12 12 13 14 15
4 3 3 4 2 1 2 3 1 1 3 4 3 3 3 3 5 4 2 7 9 8 8 7 10 15 18 17 17 16 15 15 14 14 13 13 13 13 14 14 15 16 16 17 17 18 18 19 19 19 19 18 18 18 18 18 19 19 19 19 18 17 15 13 11 10 8 7 7 6 6 5 5 4 3 3 2 2 3 3 4 5 5 6 7 7 8 9 9 10 11 12 13 14 14 15 16
2 1 1 2 2 4 3 3 4 3 3 4 3 2 3 5 6 5 8 11 11 10 8 8 12 18 20 20 20 19 18 17 15 15 14 14 14 14 14 14 15 15 16 17 16 16 17 18 18 18 18 18 19 19 20 21 21 21 20 19 18 15 14 12 11 9 9 8 8 8 7 7 5 5 4 3 2 2 3 3 4 4 5 6 7 7 8 9 10 11 12 13 14 15 16 16 17
2 2 3 2 1 2 1 1 3 4 3 4 2 2 5 6 5 7 10 10 9 10 9 9 16 21 22 22 22 21 19 18 16 16 16 16 16 15 15 15 15 16 16 16 15 15 16 18 18 18 19 20 21 22 22 23 22 21 19 17 16 14 13 12 11 11 10 10 10 9 8 7 5 5 4 3 3 2 2 3 3 4 5 6 6 8 8 9 10 12 13 14 15 16 17 19 19
5 4 6 6 4 4 3 3 2 2 3 4 4 3 7 6 4 6 8 7 7 9 11 12 18 23 24 23 23 21 19 18 18 17 17 17 17 16 16 16 16 16 16 16 16 17 17 19 19 20 21 22 23 23 22 21 20 19 17 16 15 14 13 13 12 13 12 11 11 9 8 7 6 5 4 4 3 2 1 2 3 4 5 6 7 8 9 10 11 13 15 16 18 19 20 22 23
Wind_Direction
294 268 260 233 254 282 294 293 352 309 79 80 237 101 210 163 116 108 82 72 69 59 75 79 54 49 84 106 108 84 44 352 229 138 137 145 148 159 157 157 162 149 138 128 123 110 95 88 94 101 108 109 115 123 117 114 114 113 110 106 104 102 101 101 102 102 103 91 66 57 63 68 72 78 81 85 86 85 85 86 86 81 79 78 79 82 85 89 94 98 104 104 97 93 90 88 87
278 261 257 240 251 300 315 13 110 343 50 29 290 152 168 64 70 106 103 88 104 103 89 81 57 59 95 99 93 75 39 36 110 119 124 139 148 160 158 157 161 147 139 131 124 112 100 96 101 104 109 112 125 132 123 121 122 119 114 109 107 104 105 105 107 104 93 74 63 68 72 71 74 81 82 80 81 84 85 85 82 80 79 79 81 82 83 86 88 90 93 95 95 93 90 90 92
257 250 243 241 274 331 312 346 139 358 90 144 262 265 109 77 89 120 110 106 107 107 98 83 60 62 82 72 57 78 65 70 105 117 126 144 151 158 165 162 160 149 142 133 125 114 102 102 103 104 111 119 134 140 131 128 128 126 121 113 111 107 109 110 107 95 78 73 74 79 80 77 79 84 83 78 81 86 89 86 77 75 79 80 80 81 82 83 86 90 92 93 92 91 90 93 97
235 241 243 263 358 16 320 29 181 146 105 175 209 296 96 111 120 116 112 111 108 107 99 84 64 69 83 85 80 83 96 107 115 123 135 152 153 158 166 161 159 151 143 134 126 116 105 105 105 106 112 123 139 146 141 135 131 130 126 118 114 111 113 110 99 82 74 80 82 84 85 84 83 83 82 80 82 84 88 86 78 75 78 81 81 82 84 85 86 90 92 92 91 91 93 97 101
213 232 253 295 357 13 64 49 190 94 179 186 151 219 137 125 125 113 115 114 108 109 106 96 85 86 86 90 98 91 115 129 128 132 141 153 153 154 160 158 157 150 143 135 126 115 106 106 109 109 111 120 134 145 148 144 137 133 130 124 119 119 118 109 96 78 71 76 78 81 86 86 86 86 83 82 82 84 88 86 80 77 76 81 84 84 86 89 90 92 93 93 93 93 95 99 103
208 215 223 268 295 312 15 49 315 344 243 178 123 171 151 131 127 115 108 108 104 110 110 103 113 102 81 79 92 105 136 142 139 144 146 150 153 150 152 155 154 149 142 135 127 116 107 108 110 110 109 113 122 132 140 142 139 139 136 129 124 122 120 115 97 78 76 78 79 85 90 88 88 89 86 85 85 86 88 84 79 77 76 80 83 86 89 91 92 94 96 95 93 93 95 99 104
221 212 178 283 280 312 117 167 235 244 298 121 129 152 153 135 126 118 108 103 101 110 105 103 118 103 87 114 98 91 142 160 150 151 151 151 155 149 149 153 152 147 141 138 131 121 112 110 109 109 108 108 112 116 119 126 133 143 144 137 131 123 119 114 96 86 89 89 88 92 94 91 91 92 89 88 89 89 89 86 81 80 81 81 82 87 91 93 94 94 95 94 93 93 95 100 104
220 212 79 38 336 16 138 162 242 185 33 55 130 142 143 140 130 122 116 116 127 129 112 109 115 99 107 140 104 92 139 159 155 154 155 155 156 150 151 155 151 146 143 142 135 126 118 112 109 107 107 107 108 106 106 116 127 141 148 146 140 127 115 105 94 92 92 93 94 96 99 99 98 97 95 94 94 94 93 89 86 86 86 84 82 84 89 92 93 92 92 92 92 94 96 99 103
208 227 16 78 258 318 257 119 240 206 78 84 123 141 138 140 132 122 112 116 139 139 128 122 115 115 125 116 103 119 135 147 156 156 159 158 156 154 156 157 151 146 145 145 139 131 124 118 113 109 108 108 107 106 105 113 122 133 144 151 149 135 115 104 99 96 95 97 98 100 103 105 103 100 101 101 99 98 97 94 91 89 89 88 86 85 86 87 89 91 91 91 92 96 99 101 103
207 226 259 86 151 280 290 299 205 236 146 121 126 143 139 138 127 122 118 120 142 134 130 124 118 131 124 107 112 132 137 148 157 158 158 150 151 159 159 156 150 147 147 147 144 139 133 126 119 113 109 107 107 108 108 112 118 124 131 138 141 132 118 112 107 103 104 101 100 102 104 110 108 105 106 104 101 102 102 100 95 92 91 89 86 83 83 84 86 88 89 90 93 96 101 104 106
248 229 227 104 147 229 244 222 174 222 177 116 102 133 139 139 122 119 120 121 139 131 139 128 121 130 117 109 127 141 149 158 165 158 150 141 154 170 161 155 152 150 150 149 150 146 141 134 124 116 111 107 108 110 112 114 117 120 121 123 123 120 117 116 114 112 111 106 105 104 106 109 107 106 104 99 99 103 104 101 96 90 88 85 84 82 82 84 83 86 87 88 92 95 101 105 107
284 252 126 143 201 210 206 155 168 192 96 93 97 121 134 137 120 122 124 126 138 132 155 144 138 138 111 115 139 148 160 163 170 160 147 144 162 177 167 164 162 157 155 154 155 153 149 142 132 123 117 111 110 112 114 115 116 118 117 118 117 117 117 117 117 114 111 108 107 106 106 106 104 104 100 96 96 99 101 100 96 89 87 85 86 86 85 85 83 85 86 87 89 93 97 101 107
253 257 106 172 215 186 147 140 169 140 109 180 169 134 130 132 123 138 133 133 143 134 158 146 147 143 105 126 144 156 166 167 170 161 151 148 165 177 174 177 173 165 162 162 160 158 156 150 144 133 125 118 115 114 114 114 113 114 113 114 113 114 116 117 116 112 109 106 105 105 106 107 106 106 101 99 98 97 98 99 98 94 93 91 89 88 86 86 85 87 88 88 89 90 93 94 99
245 279 117 200 281 176 131 134 172 133 165 230 158 144 130 105 116 144 137 126 142 140 151 146 141 135 116 128 152 168 169 171 169 163 155 151 166 176 181 186 180 173 169 168 164 164 162 158 154 145 136 127 123 120 117 115 113 113 111 111 110 111 113 114 114 110 108 104 102 104 106 109 108 105 101 101 102 102 101 97 96 99 100 96 91 87 85 86 87 89 88 89 89 89 88 86 87
252 287 62 188 311 299 166 155 171 136 165 204 153 149 122 81 96 135 136 123 125 143 147 143 140 130 154 161 177 176 172 173 167 162 159 156 168 178 188 190 183 179 172 169 168 168 167 165 162 154 150 140 134 129 124 121 118 117 113 112 112 111 111 111 112 109 107 104 104 107 108 109 106 104 103 103 105 105 101 97 96 100 100 96 92 87 85 85 84 87 87 88 87 85 83 81 79
260 282 31 206 255 244 229 149 135 124 175 189 156 150 119 81 96 110 128 138 123 137 147 139 150 130 171 188 186 173 171 171 164 162 163 164 171 178 191 191 187 186 174 170 173 173 171 171 169 164 161 155 150 142 135 130 126 125 120 119 118 115 113 109 109 109 109 109 108 109 108 107 105 102 102 104 105 105 102 101 102 101 100 97 94 89 84 81 81 83 84 84 81 81 79 77 73
261 271 47 275 238 207 216 165 156 154 167 176 158 152 134 85 102 105 115 138 123 125 133 116 140 133 161 186 168 167 170 167 163 165 167 170 174 178 190 189 188 188 179 177 181 180 175 177 178 173 172 168 165 157 148 141 136 137 132 131 128 122 118 113 110 108 109 111 112 111 108 106 105 104 102 102 102 103 104 105 107 105 101 98 94 92 87 81 80 79 79 78 77 77 77 75 69
237 153 169 243 232 210 230 187 162 144 144 166 161 154 147 134 126 122 114 127 124 118 122 120 132 127 138 153 152 164 169 166 168 171 173 176 180 183 187 189 191 186 180 181 189 192 183 182 185 181 182 179 175 172 164 157 153 151 149 147 142 134 128 123 118 112 110 110 113 114 113 111 109 108 106 103 101 102 105 106 109 109 106 103 98 95 90 80 77 77 76 72 68 66 65 68 64
218 153 180 237 215 251 299 150 144 137 148 159 159 157 158 166 157 142 132 133 133 116 111 127 128 125 138 152 157 167 170 171 174 179 181 184 188 190 190 192 193 185 180 181 187 197 194 190 190 188 192 190 181 180 177 174 173 169 165 162 159 155 146 137 130 123 120 116 118 122 124 121 115 114 113 109 107 106 107 107 108 112 110 104 98 89 83 74 69 70 71 69 62 52 49 51 51
224 195 213 250 217 79 38 134 152 151 149 153 161 165 164 173 167 155 158 150 146 146 144 142 138 143 151 160 166 170 174 177 180 184 189 192 195 198 196 195 194 189 184 183 184 193 202 200 197 195 201 201 187 182 184 183 185 185 182 180 177 173 168 161 152 144 140 139 134 135 140 129 118 115 117 116 117 120 116 115 115 115 111 103 92 82 79 58 49 41 38 46 41 22 18 21 27
217 188 198 245 216 108 54 124 145 150 148 153 157 150 149 164 172 169 155 145 177 186 181 184 170 167 164 167 174 176 179 181 185 189 192 195 197 199 201 198 196 192 187 187 188 193 201 203 201 199 205 211 199 189 190 190 192 195 196 195 194 189 185 182 176 172 168 175 159 147 160 138 121 117 121 127 129 138 136 134 137 125 122 115 94 81 78 338 346 332 334 336 339 337 336 338 350
254 222 204 242 216 146 140 126 134 148 147 147 144 133 148 158 171 176 158 153 223 204 201 213 198 185 180 176 180 182 184 186 190 193 194 197 198 199 200 199 195 191 190 192 195 197 203 205 205 203 204 215 212 201 200 203 201 200 205 206 204 203 200 196 192 190 187 201 193 170 187 152 133 137 142 146 141 161 183 176 184 209 221 233 264 269 274 283 295 299 306 311 317 322 321 324 334
243 246 225 322 211 161 159 135 133 150 146 144 148 142 151 151 166 183 177 178 193 195 205 212 206 195 189 183 183 186 190 192 195 196 197 198 199 201 200 201 199 196 197 199 200 201 204 205 208 209 208 215 217 208 208 213 212 207 210 213 212 212 213 210 205 203 200 209 212 202 216 194 164 178 196 188 170 192 224 221 221 239 245 256 266 266 269 271 278 286 291 295 300 305 306 312 323
212 246 262 79 152 151 157 139 131 149 146 147 155 150 156 157 167 187 185 166 155 148 175 197 200 192 186 187 187 191 195 197 201 200 200 201 203 205 204 205 205 203 203 202 203 205 207 206 208 214 214 218 221 216 214 218 221 222 220 220 218 214 217 219 217 217 215 217 219 214 222 229 212 207 222 227 211 213 231 237 237 244 247 256 266 267 264 268 276 280 284 291 296 298 300 305 309
211 236 218 149 136 144 157 144 134 142 139 143 149 146 165 171 171 180 178 166 158 157 155 169 181 184 185 189 189 192 196 198 203 203 202 203 203 205 204 205 206 206 207 205 204 208 211 210 210 216 218 220 224 223 224 224 227 233 234 233 231 223 222 225 225 226 224 223 228 224 222 233 238 230 229 238 239 235 237 241 247 251 252 259 270 277 276 277 282 285 286 290 294 295 298 302 301
218 209 193 169 154 147 156 150 138 139 137 144 143 123 148 168 173 184 187 185 178 179 177 167 171 181 184 186 189 192 197 197 199 204 205 204 202 204 202 202 206 209 212 211 209 211 214 214 214 218 220 222 225 227 229 231 231 234 240 242 243 242 237 236 235 234 232 228 229 230 227 230 239 243 239 240 247 252 251 250 254 258 261 266 272 279 283 284 286 288 289 291 293 295 298 298 297
218 181 164 160 152 147 158 156 146 142 142 152 147 117 136 154 167 206 198 193 186 177 173 174 176 183 185 187 192 194 200 200 198 200 204 205 203 205 204 201 207 213 215 216 216 217 217 218 220 221 221 222 224 228 230 232 233 234 238 242 245 249 247 247 245 241 241 239 235 231 230 232 237 243 246 246 248 254 259 260 261 263 267 269 271 273 277 281 282 282 284 287 290 292 294 294 296
193 146 121 137 149 150 160 155 153 145 144 160 143 111 114 120 179 221 199 190 191 183 172 175 181 186 189 193 198 200 203 204 201 199 202 207 207 207 206 203 205 213 218 219 222 222 222 225 227 227 226 226 225 227 231 233 234 235 237 240 243 247 249 251 250 247 245 244 243 238 234 235 238 243 247 251 252 253 258 261 262 265 269 271 272 273 275 277 278 279 282 284 287 289 291 293 295
172 151 124 132 117 181 170 157 165 159 144 155 133 103 338 205 221 218 195 186 188 187 180 180 186 190 194 198 202 206 207 204 204 204 206 210 212 213 213 209 207 212 219 222 224 224 224 227 229 230 230 232 231 229 232 234 236 237 239 240 243 246 248 249 251 252 251 249 248 246 244 239 238 243 248 253 256 257 259 261 263 265 269 272 274 274 275 277 278 279 281 284 286 288 290 293 294
168 157 128 135 32 286 203 177 175 164 150 159 143 141 259 240 235 220 188 183 183 187 188 188 192 195 198 202 206 209 208 207 209 210 211 211 213 216 217 215 211 214 219 221 224 227 227 226 227 229 229 232 234 234 233 234 237 239 240 242 244 246 247 249 251 252 252 253 252 253 254 250 244 242 246 252 256 260 262 263 265 265 267 269 272 274 275 277 278 279 281 283 285 286 288 290 291
164 122 125 138 150 245 239 189 164 145 173 176 146 173 239 251 253 219 189 187 185 188 193 195 198 198 200 205 210 214 212 214 218 217 215 214 214 216 217 216 213 214 218 221 224 229 232 233 230 228 229 231 234 237 236 235 237 239 241 244 247 249 249 250 255 257 256 254 255 255 257 259 257 250 247 251 255 259 262 264 267 268 268 267 269 272 274 275 277 279 281 281 282 282 283 285 287
153 133 200 175 161 234 290 203 176 154 184 186 142 158 252 270 246 194 186 190 191 192 195 199 203 201 202 205 211 216 218 220 223 223 221 220 217 217 216 215 214 213 216 221 224 228 234 237 236 233 231 232 234 237 239 237 237 239 241 244 248 252 254 254 255 258 259 258 257 256 256 259 261 261 256 253 254 258 260 263 265 266 268 268 269 269 271 274 277 279 279 279 280 278 277 277 278
323 129 190 195 168 209 306 238 216 182 145 185 181 166 249 272 203 175 179 187 191 192 192 199 206 206 203 206 212 215 218 219 221 223 223 223 221 219 218 216 216 215 214 218 223 227 232 236 238 237 235 235 236 236 238 238 238 240 241 243 245 249 253 256 257 257 258 260 261 261 260 259 260 262 262 258 257 259 262 264 264 263 265 269 270 270 270 272 274 277 277 277 277 275 274 274 275
291 71 166 200 169 170 187 269 239 195 155 191 206 196 241 271 199 174 180 185 189 192 195 202 209 211 208 208 213 216 218 220 222 223 222 223 223 221 220 219 219 218 215 216 221 226 231 235 238 239 237 236 236 236 236 238 239 240 240 241 243 245 250 254 257 258 258 260 262 264 265 264 262 261 262 262 258 257 261 265 266 263 263 268 272 274 276 277 276 275 276 277 277 277 276 278 282
209 184 174 200 153 170 189 223 219 183 174 192 181 219 248 269 246 197 193 190 195 201 202 205 210 212 211 210 214 219 222 225 227 227 225 224 224 223 222 221 221 221 218 216 218 223 228 232 235 237 236 233 233 234 234 236 237 237 236 236 239 242 246 250 252 256 260 261 263 264 266 267 268 267 266 265 263 261 261 262 265 264 261 262 264 268 273 275 274 273 275 277 277 279 280 283 288
179 189 178 168 167 211 213 231 242 164 161 201 185 212 238 244 260 230 206 199 205 212 210 205 208 210 209 211 216 220 224 230 231 228 227 226 225 225 224 223 223 223 221 218 217 220 223 226 229 230 230 230 229 229 230 230 230 231 231 231 235 239 245 250 253 256 259 261 264 264 266 268 270 271 270 270 270 270 267 264 265 265 263 261 261 266 269 272 275 275 276 278 277 276 278 282 288
183 174 185 192 181 231 261 287 306 113 147 219 206 216 248 237 245 244 220 206 210 218 217 210 207 207 208 211 217 221 226 232 232 227 227 227 226 225 225 224 224 223 221 219 219 219 221 222 225 226 225 226 226 226 228 229 230 231 232 235 239 243 248 254 258 260 262 264 266 266 269 272 272 272 271 271 272 273 273 270 269 268 265 265 267 270 272 275 279 281 281 285 287 285 281 281 286
218 187 191 215 194 211 261 266 313 8 142 241 242 225 259 246 240 252 229 206 213 217 215 214 212 209 211 213 218 224 228 230 225 223 223 225 225 223 222 223 223 224 222 221 220 220 221 222 224 226 225 225 227 228 230 234 237 239 241 246 250 251 253 258 262 265 267 269 271 273 275 275 273 272 272 272 275 278 280 280 282 277 269 271 277 279 279 278 283 285 281 281 288 294 291 286 287
215 201 182 212 210 179 290 314 334 14 134 255 325 217 253 256 246 256 231 207 217 219 216 217 215 212 212 214 219 222 222 221 218 219 219 220 222 220 219 221 223 226 226 225 224 223 223 223 224 225 226 227 229 231 234 237 242 245 248 251 252 253 255 258 262 262 264 268 274 278 276 272 270 271 274 275 275 277 279 282 288 285 275 273 277 282 282 277 284 286 279 280 288 292 291 289 290
191 171 170 211 205 156 219 285 330 21 112 182 45 288 270 272 263 266 242 222 220 223 222 223 222 219 219 221 223 222 218 217 217 217 219 219 219 218 218 220 223 225 226 227 227 225 226 227 227 227 228 230 231 233 237 239 241 244 247 249 250 252 253 254 255 256 259 265 272 274 273 271 272 274 275 275 273 273 276 280 287 287 281 273 272 279 281 276 279 281 279 283 286 285 288 291 292
255 164 158 182 185 171 169 169 91 18 5 96 71 354 299 261 243 257 250 232 225 225 223 223 225 226 228 230 229 226 223 222 219 217 218 219 219 220 221 222 223 226 227 228 229 229 230 232 232 232 232 233 234 236 237 238 238 239 239 240 241 244 248 251 254 260 263 267 271 272 271 269 268 269 269 271 275 277 277 279 281 282 280 279 279 282 285 284 281 280 282 282 279 283 292 293 287
283 222 183 174 171 154 123 119 92 51 332 288 103 352 291 284 248 244 249 240 233 228 220 220 225 225 227 229 228 227 227 225 224 222 221 221 221 222 223 224 225 228 230 231 232 232 234 235 236 236 235 234 236 237 237 237 237 237 239 241 243 247 252 258 263 269 271 270 272 270 266 262 260 261 263 266 271 273 273 274 274 274 277 279 280 284 290 293 288 286 286 284 283 287 293 292 289
241 257 209 144 137 127 133 136 112 125 235 283 94 166 257 317 295 255 243 223 237 234 225 226 227 225 223 224 226 225 223 222 222 222 223 223 223 223 224 227 229 229 231 231 231 230 231 233 234 236 237 237 237 237 237 237 237 238 241 245 250 253 257 261 264 266 265 265 265 263 257 254 255 257 260 262 263 265 267 270 272 275 278 280 282 291 299 295 290 287 283 284 288 290 294 295 294
216 241 120 124 129 140 154 142 125 181 197 333 17 135 224 292 273 274 250 200 247 249 237 237 230 225 221 219 220 219 219 220 219 218 218 220 222 225 227 230 231 229 229 229 228 228 229 230 231 234 236 238 237 236 236 238 239 241 243 246 249 251 253 256 258 259 259 258 258 257 251 246 248 251 256 259 261 264 266 268 270 272 276 279 282 287 289 286 288 290 289 290 289 291 300 300 296
232 198 128 137 142 145 148 125 113 97 116 299 310 120 187 268 269 301 324 170 253 248 234 236 229 223 219 216 215 213 212 211 211 211 213 216 220 224 227 229 228 227 226 227 227 228 228 229 229 231 234 236 236 235 234 236 238 240 242 244 244 246 247 248 251 252 252 253 253 251 246 244 247 251 253 256 259 263 265 266 264 263 264 267 269 271 273 277 282 287 290 290 290 294 298 298 297
201 143 97 83 77 94 105 108 109 63 81 237 262 206 179 271 280 300 326 229 244 244 242 239 231 226 223 221 219 217 216 214 213 214 215 219 223 227 230 231 230 228 225 225 226 227 228 228 228 230 231 233 234 233 232 233 234 236 237 239 240 241 242 243 246 248 248 248 247 246 243 245 252 259 261 263 266 267 268 269 267 265 265 263 264 266 269 271 271 272 274 276 283 291 292 290 292
129 96 67 53 32 37 51 58 92 83 279 249 248 213 161 272 281 243 219 227 218 219 245 252 239 229 223 221 219 218 219 221 222 224 224 226 228 230 233 235 235 234 231 227 225 226 227 228 228 229 229 230 231 231 231 230 231 232 234 236 238 239 241 243 244 245 245 246 245 243 241 245 257 264 268 269 269 267 265 269 270 270 270 269 271 274 276 278 275 274 276 278 283 286 286 286 286
105 90 94 76 9 13 21 358 46 129 251 260 258 215 155 220 264 248 248 261 231 206 224 237 221 206 202 202 205 209 214 220 225 229 231 231 231 232 232 233 235 236 236 233 230 228 227 228 229 229 228 229 229 229 229 228 229 230 231 233 235 237 238 240 241 242 243 244 243 238 233 235 241 244 250 254 259 264 263 268 274 274 275 275 276 279 281 283 282 281 283 284 283 281 280 280 279
82 109 119 104 24 23 17 297 318 217 242 266 286 268 191 231 254 262 271 275 256 226 224 226 203 186 186 191 199 210 219 227 231 231 233 234 235 235 235 234 235 236 237 236 235 232 229 228 228 229 229 228 227 226 226 226 226 226 227 228 228 230 232 234 236 236 236 234 231 225 219 217 215 216 226 237 251 268 272 272 278 279 283 285 287 289 289 291 293 293 293 291 290 289 289 287 285
128 142 139 135 123 85 226 251 281 253 253 281 295 286 259 267 268 251 250 257 256 247 243 233 207 193 192 197 205 219 229 234 236 234 233 234 234 236 236 236 235 235 235 234 233 231 229 227 227 227 227 226 225 223 222 222 222 223 222 222 222 223 225 226 227 224 219 215 209 201 197 201 205 211 225 242 259 281 297 311 322 322 323 325 325 323 321 320 319 316 315 314 313 310 308 307 304
173 163 139 150 156 146 190 212 199 222 259 293 299 275 192 199 258 247 246 266 263 241 232 222 207 201 197 199 209 219 227 231 234 237 238 237 237 236 236 235 232 231 229 226 225 224 223 223 223 223 222 220 219 218 218 218 219 219 217 215 216 217 216 213 207 198 192 188 186 185 190 202 217 243 273 293 315 341 353 358 360 358 357 357 357 356 354 354 352 347 341 338 337 334 333 330 326
215 145 120 163 180 147 150 184 178 170 169 278 249 239 210 202 272 275 268 304 271 193 197 189 185 190 191 198 209 213 220 224 228 234 238 240 240 238 237 234 227 221 216 214 213 213 214 214 214 215 215 215 214 213 213 213 212 212 209 207 206 203 195 186 178 175 174 174 176 180 187 204 223 248 286 326 354 3 7 10 10 8 9 7 4 4 2 2 1 359 356 354 353 351 348 346 343
178 131 165 207 168 121 121 192 167 109 148 244 208 244 288 307 291 292 272 187 252 211 191 180 177 183 191 201 208 210 215 219 223 231 235 237 238 234 229 221 215 211 207 205 203 202 203 202 203 204 205 206 207 206 204 202 200 199 194 187 182 176 171 168 168 170 170 170 174 177 182 195 201 200 191 92 43 37 33 29 24 19 16 12 7 5 2 0 359 358 357 357 357 356 353 350 348
123 160 203 194 118 96 116 162 12 61 196 266 219 214 275 286 266 316 10 213 257 260 228 209 194 192 199 204 206 209 213 215 219 225 226 228 228 225 220 213 209 206 205 203 198 194 193 193 194 195 194 193 191 190 187 185 182 178 173 168 166 165 166 168 168 169 170 171 176 181 186 190 184 170 154 133 106 77 57 38 29 22 17 14 10 8 6 2 359 355 352 351 351 351 350 348 344
134 180 182 129 142 207 145 155 180 174 219 272 282 238 243 210 221 295 282 222 239 238 225 225 214 205 204 203 200 204 209 212 216 219 219 220 219 219 217 212 208 204 203 202 197 193 190 188 188 186 184 181 177 174 171 169 167 165 164 165 165 165 166 168 168 169 172 175 181 183 180 177 169 161 152 135 114 75 53 39 30 22 16 13 8 5 1 355 352 349 346 345 344 343 342 342 340
40 67 88 92 149 177 174 170 160 158 203 247 296 311 254 233 216 209 216 219 222 220 213 219 219 212 207 203 199 202 208 212 215 215 215 214 213 213 211 208 206 201 199 199 195 189 183 180 177 174 172 169 166 165 164 163 163 163 165 165 166 167 166 167 170 172 176 178 178 176 171 170 165 156 145 127 104 76 62 45 32 22 11 5 360 354 350 347 345 344 343 342 341 341 340 340 340
133 127 161 186 143 128 157 205 138 128 164 205 234 275 264 251 213 201 221 226 219 212 206 216 222 217 213 210 206 207 210 212 214 214 212 211 208 206 203 201 201 196 194 192 187 179 174 171 167 164 165 164 163 163 163 163 163 163 166 166 166 167 167 171 173 174 177 176 172 170 167 164 159 150 137 123 110 89 70 39 21 9 360 354 350 348 348 348 346 344 343 341 339 339 338 338 338
168 174 183 184 171 126 142 238 228 147 169 178 175 236 269 257 213 214 229 229 230 222 209 215 224 220 217 215 212 213 214 212 212 212 211 209 205 203 200 197 196 192 188 184 179 175 172 168 165 165 166 166 165 165 164 165 165 164 166 168 169 170 170 174 175 174 175 173 168 166 161 156 153 147 137 130 121 97 66 26 9 358 353 350 347 347 346 344 343 340 339 338 337 337 336 336 336